This is the latest recevied weather packets stored in our database for station/object LU3HGB-WX. If no packets are shown the sender has not sent any weather packets the latest 10 day(s).
| Time | Temp. | Humidity | Pressure | Rain* | Wind** | Luminosity | Snow |
|---|---|---|---|---|---|---|---|
| 1778181160 | 15.56° C | 19% | 1012 hPa | 0 mm | - | 406 W/m² | - |
| 1778180859 | 15.56° C | 18% | 1012 hPa | 0 mm | - | 425 W/m² | - |
| 1778180560 | 15.56° C | 17% | 1012 hPa | 0 mm | - | 440 W/m² | - |
| 1778180259 | 15.56° C | 22% | 1012 hPa | 0 mm | - | 458 W/m² | - |
| 1778179960 | 15.56° C | 20% | 1012 hPa | 0 mm | - | 467 W/m² | - |
| 1778179660 | 15.56° C | 18% | 1012 hPa | 0 mm | - | 485 W/m² | - |
| 1778179359 | 15.56° C | 19% | 1012 hPa | 0 mm | - | 501 W/m² | - |
| 1778170660 | 14.44° C | 24% | 1013 hPa | 0 mm | - | 709 W/m² | - |
| 1778170360 | 14.44° C | 23% | 1013 hPa | 0 mm | - | 710 W/m² | - |
| 1778170059 | 14.44° C | 24% | 1013 hPa | 0 mm | - | 708 W/m² | - |
| 1778169766 | 13.89° C | 25% | 1013 hPa | 0 mm | - | 707 W/m² | - |
| 1778169460 | 13.89° C | 25% | 1014 hPa | 0 mm | - | 703 W/m² | - |
| 1778169160 | 13.89° C | 25% | 1014 hPa | 0 mm | - | 703 W/m² | - |
| 1778168862 | 13.33° C | 27% | 1014 hPa | 0 mm | - | 700 W/m² | - |
| 1778168560 | 13.33° C | 25% | 1014 hPa | 0 mm | - | 698 W/m² | - |
| 1778168259 | 13.89° C | 26% | 1014 hPa | 0 mm | - | 695 W/m² | - |
| 1778167961 | 13.89° C | 27% | 1014 hPa | 0 mm | - | 689 W/m² | - |
| 1778167659 | 13.33° C | 29% | 1013 hPa | 0 mm | - | 630 W/m² | - |
| 1778167360 | 13.33° C | 27% | 1013 hPa | 0 mm | - | 686 W/m² | - |
| 1778167059 | 13.33° C | 27% | 1013 hPa | 0 mm | - | 673 W/m² | - |
| 1778166760 | 12.78° C | 26% | 1013 hPa | 0 mm | - | 619 W/m² | - |
| 1778166459 | 12.78° C | 25% | 1013 hPa | 0 mm | - | 557 W/m² | - |
| 1778166160 | 12.78° C | 25% | 1013 hPa | 0 mm | - | 629 W/m² | - |
| 1778165861 | 12.78° C | 25% | 1013 hPa | 0 mm | - | 588 W/m² | - |
| 1778165559 | 12.78° C | 25% | 1013 hPa | 0 mm | - | 629 W/m² | - |
* Rain latest hour (hover to see other rain measurements)
** Current wind speed in m/s (hover to see current wind gust speed)